Regional Weather Roundup
Issued by NWS Portland, ME

Current Version | Previous Version | Text Only | Print | Product List | Glossary Off
Versions: 1 2 3 4 5 6 7 8 9 10 11 12 13 14 15 16 17 18 19 20 21 22 23 24 25 26 27 28 29 30 31 32 33 34 35 36 37 38 39 40 41 42 43 44 45 46 47 48 49 50
583 ASUS41 KGYX 251205 RWRGYX WEATHER ROUNDUP FOR MAINE AND NEW HAMPSHIRE NATIONAL WEATHER SERVICE GRAY ME 800 AM EDT THU MAY 25 2017 MEZ002-005-006-010-012-015-018-020-021-024-026-027-029-251300- MAINE CITY SKY/WX TMP DP RH WIND PRES REMARKS PORTLAND CLOUDY 53 51 93 E6 29.95R 6HR MIN TEMP: 47; 6HR MAX TEMP: 53; SANFORD CLOUDY 52 51 97 NE6 29.93S BAR HARBOR CLOUDY 51 48 89 E7 29.99R WISCASSET CLOUDY 54 51 90 CALM 29.97S 6HR MIN TEMP: 45; 6HR MAX TEMP: 54; ROCKLAND CLOUDY 52 51 97 E3 29.97R FRYEBURG CLOUDY 53 52 96 CALM 29.94S 6HR MIN TEMP: 45; 6HR MAX TEMP: 53; LEWISTONAUBURN CLOUDY 52 50 93 CALM 29.96R AUGUSTA CLOUDY 53 48 83 CALM 29.97R 6HR MIN TEMP: 49; 6HR MAX TEMP: 53; BANGOR CLOUDY 56 50 80 CALM 29.98R 6HR MIN TEMP: 45; 6HR MAX TEMP: 56; GREENVILLE N/A 55 50 83 VRB3 29.95R 6HR MIN TEMP: 52; 6HR MAX TEMP: 55; MILLINOCKET CLOUDY 52 48 86 E5 30.02R 6HR MIN TEMP: 47; 6HR MAX TEMP: 52; HOULTON CLOUDY 51 45 79 E5 30.02R 6HR MIN TEMP: 44; 6HR MAX TEMP: 51; PRESQUE ISLE MOSUNNY 54 46 74 NE7 30.03R 6HR MIN TEMP: 44; 6HR MAX TEMP: 54; FRENCHVILLE PTSUNNY 48 45 89 VRB7 30.01R 6HR MIN TEMP: 43; 6HR MAX TEMP: 50; CARIBOU MOSUNNY 54 44 69 E7 30.02R 6HR MIN TEMP: 47; 6HR MAX TEMP: 54; $$ NHZ002-005-008-009-011-012-014-251300- NEW HAMPSHIRE CITY SKY/WX TMP DP RH WIND PRES REMARKS PORTSMOUTH CLOUDY 54 50 86 NE7 29.90S ROCHESTER CLOUDY 52 48 86 NE5 29.91S 6HR MIN TEMP: 47; 6HR MAX TEMP: 52; NASHUA CLOUDY 55 51 86 E5 29.90S MANCHESTER CLOUDY 54 48 80 E8 29.89S 6HR MIN TEMP: 52; 6HR MAX TEMP: 55; CONCORD CLOUDY 53 51 93 CALM 29.90S 6HR MIN TEMP: 48; 6HR MAX TEMP: 54; LACONIA CLOUDY 55 48 77 NE7 29.92S BERLIN CLOUDY 49 47 93 CALM 29.91F 6HR MIN TEMP: 43; 6HR MAX TEMP: 49; WHITEFIELD CLOUDY 53 48 83 CALM 29.88F 6HR MIN TEMP: 43; 6HR MAX TEMP: 53; JAFFREY CLOUDY 53 48 83 VRB3 29.88F 6HR MIN TEMP: 48; 6HR MAX TEMP: 53; KEENE LGT RAIN 55 49 80 CALM 29.87S LEBANON CLOUDY 56 51 84 NE5 29.88S 6HR MIN TEMP: 50; 6HR MAX TEMP: 56; MT WASHINGTON NOT AVBL $$ VTZ005-007-008-251300- VERMONT CITY SKY/WX TMP DP RH WIND PRES REMARKS ST JOHNSBURY N/A 52 50 93 MISG 29.87S MONTPELIER CLOUDY 53 52 96 CALM 29.90F BURLINGTON CLOUDY 62 50 64 SE10 29.82F $$ MAZ007-012-024-CTZ003-RIZ002-NYZ038-NYZ072-251300- SOUTHERN NEW ENGLAND AND NY CITY SKY/WX TMP DP RH WIND PRES REMARKS BOSTON CLOUDY 55 51 86 NE15 29.87F WORCESTER CLOUDY 51 47 86 NE13G20 29.85F NANTUCKET CLOUDY 53 51 93 E17G25 29.80S FOG PROVIDENCE LGT RAIN 54 53 97 NE12 29.83S HARTFORD LGT RAIN 55 51 86 N9 29.81F ALBANY CLOUDY 59 48 67 CALM 29.78F NEW YORK CITY LGT RAIN 57 55 93 NE13 29.69F $$ ANZ081-ANZ082-ANZ150-NHZ014-MEZ023>029-251300- COASTAL MARINE OBSERVATIONS STATION/POSITION TIME TEMP WIND PRES WAVE AIR SEA DIR/SP/G HT/PER (UTC) (F) (DEG/KT/KT) (MB) (FT/S) MOUNT DESERT ROC 1200 47 1015.3R ISLE OF SHOALS 1100 53 70/ 12/ 13 1012.5R JEFFREYS LEDGE 1106 51 N/A 4/ 8 CASHES LEDGE BUO 1050 50 50 1013.4 4/ 8 GEORGES BANK BUO 1050 48 45 1010.3 7/ 8 $$ .............KEY.............. WCI - WIND CHILL TC - TEMPERATURE IN CELSIUS VSB - VISIBILITY IN MILES HX - HEAT INDEX FAIR- INDICATES FEW OR NO CLOUDS BELOW 12,000 FT, WITH NO SIGNIFICANT WEATHER AND/OR OBSTRUCTIONS TO VISIBILITY.

USA.gov is the U.S. government's official web portal to all federal, state and local government web resources and services.